EW1940 Weather Reports


Display with metric or nautical units.
time (UTC)temp
F
wind
direction
speed
MPH
gust
MPH
rain 1hr
in
rain 24hr
in
rain mn
in
humidity
%
barometer
mb
20260506042016 52 45 2.0 5.0 0.00 0.00 0.00 77 1012.0
20260506041016 52 45 3.0 8.0 0.00 0.00 0.00 76 1012.0
20260506040016 52 45 2.0 7.0 0.00 0.00 0.00 76 1012.0
20260506035017 52 68 2.0 4.0 0.00 0.00 0.00 75 1011.9
20260506034036 52 45 2.0 6.0 0.00 0.00 0.00 75 1012.0
20260506033017 52 45 2.0 4.0 0.00 0.00 0.00 75 1011.9
20260506032016 52 45 3.0 8.0 0.00 0.00 0.00 74 1011.9
20260506031016 52 45 4.0 11.0 0.00 0.00 0.00 73 1012.0
20260506030016 53 45 4.0 11.0 0.00 0.00 0.00 73 1011.9
20260506025017 53 45 2.0 5.0 0.00 0.00 0.00 73 1012.0
20260506024017 53 45 3.0 8.0 0.00 0.00 0.00 73 1011.9
20260506023037 53 45 4.0 13.0 0.00 0.00 0.00 73 1011.9
20260506022016 53 45 4.0 12.0 0.00 0.00 0.00 74 1011.9
20260506021016 53 45 5.0 12.0 0.00 0.00 0.00 75 1011.9
20260506020016 54 45 4.0 9.0 0.00 0.00 0.00 76 1012.0
20260506015016 54 45 3.0 10.0 0.00 0.00 0.00 76 1012.0
20260506014017 54 45 2.0 5.0 0.00 0.00 0.00 75 1012.0
20260506013015 54 45 3.0 7.0 0.00 0.00 0.00 75 1012.0
20260506012016 54 45 3.0 7.0 0.00 0.00 0.00 75 1012.1
20260506011015 54 45 3.0 8.0 0.00 0.00 0.00 74 1012.1
20260506010016 54 45 3.0 8.0 0.00 0.00 0.00 74 1012.1
20260506005016 54 90 2.0 5.0 0.00 0.00 0.00 73 1012.1
20260506004015 54 45 1.0 3.0 0.00 0.00 0.00 73 1012.2
20260506003015 54 90 2.0 8.0 0.00 0.00 0.00 72 1012.2
20260506002017 54 90 1.0 4.0 0.00 0.00 0.00 72 1012.3
20260506001037 55 90 2.0 5.0 0.00 0.00 0.00 71 1012.3
20260506000017 55 113 2.0 7.0 0.00 0.00 0.00 70 1012.3
20260505235015 55 45 3.0 10.0 0.00 0.00 0.00 69 1012.2
20260505234018 55 45 3.0 8.0 0.00 0.00 0.00 69 1012.2
20260505233017 55 45 3.0 5.0 0.00 0.00 0.00 69 1012.1
20260505232015 55 90 3.0 9.0 0.00 0.00 0.00 70 1012.1
20260505231036 55 68 2.0 5.0 0.00 0.00 0.00 71 1012.0
20260505230015 56 90 2.0 4.0 0.00 0.00 0.00 73 1012.0
20260505225016 56 90 1.0 4.0 0.00 0.00 0.00 74 1011.9
20260505224016 56 45 2.0 5.0 0.00 0.00 0.00 74 1011.8
20260505223015 56 45 3.0 8.0 0.00 0.00 0.00 74 1011.9
20260505222017 56 45 3.0 6.0 0.00 0.00 0.00 76 1011.8
20260505221017 56 45 2.0 4.0 0.00 0.00 0.00 77 1011.7
20260505220018 56 45 2.0 5.0 0.00 0.00 0.00 77 1011.6
20260505215018 56 23 1.0 3.0 0.00 0.00 0.00 77 1011.6
20260505214040 56 23 1.0 3.0 0.00 0.00 0.00 78 1011.6
20260505213039 57 0.0 0.0 0.00 0.00 0.00 78 1011.7
20260505212058 57 0.0 0.0 0.00 0.00 0.00 78 1011.6
20260505211017 57 0.0 0.0 0.00 0.00 0.00 78 1011.5
20260505210019 57 0.0 0.0 0.00 0.00 0.00 77 1011.6
20260505205101 58 0.0 0.0 0.00 0.00 0.00 77 1011.6
20260505204019 58 0.0 0.0 0.00 0.00 0.00 76 1011.5
20260505203015 58 0.0 0.0 0.00 0.00 0.00 76 1011.5
20260505202019 58 0.0 0.0 0.00 0.00 0.00 75 1011.5
20260505201017 58 0.0 0.0 0.00 0.00 0.00 74 1011.5
20260505200040 58 0.0 0.0 0.00 0.00 0.00 73 1011.5
20260505195017 58 0.0 0.0 0.00 0.00 0.00 73 1011.4
20260505194037 59 23 1.0 2.0 0.00 0.00 0.00 72 1011.3
20260505193017 59 0 1.0 3.0 0.00 0.00 0.00 72 1011.2
20260505192017 59 0.0 2.0 0.00 0.00 0.00 72 1011.2
20260505191017 59 23 1.0 3.0 0.00 0.00 0.00 71 1011.1
20260505190018 59 0 1.0 3.0 0.00 0.00 0.00 71 1011.1
20260505185037 59 0 1.0 2.0 0.00 0.00 0.00 70 1011.0
20260505184017 59 0 1.0 4.0 0.00 0.00 0.00 71 1011.0
20260505183017 59 23 1.0 2.0 0.00 0.00 0.00 70 1010.9
20260505182019 60 0 1.0 3.0 0.00 0.00 0.00 70 1010.9
20260505181040 60 338 1.0 3.0 0.00 0.00 0.00 69 1010.8
20260505180017 60 0 2.0 3.0 0.00 0.00 0.00 69 1010.9
20260505175018 60 338 1.0 3.0 0.00 0.00 0.00 69 1011.0
20260505174017 60 0 1.0 3.0 0.00 0.00 0.00 68 1011.0
20260505173017 60 338 2.0 3.0 0.00 0.00 0.00 68 1011.0
20260505172017 60 338 2.0 3.0 0.00 0.00 0.00 68 1011.0
20260505171018 61 338 2.0 6.0 0.00 0.00 0.00 67 1011.0
20260505170018 61 338 3.0 9.0 0.00 0.00 0.00 66 1011.0
20260505165018 61 338 2.0 7.0 0.00 0.00 0.00 66 1011.1
20260505164017 62 0 2.0 7.0 0.00 0.00 0.00 66 1011.1
20260505163017 62 23 3.0 9.0 0.00 0.00 0.00 65 1011.0
20260505162017 62 0 4.0 8.0 0.00 0.00 0.00 65 1011.1
20260505161017 62 338 2.0 7.0 0.00 0.00 0.00 65 1011.1
20260505153017 63 338 2.0 4.0 0.00 0.00 0.00 65 1011.2
20260505152016 63 23 4.0 10.0 0.00 0.00 0.00 66 1011.2
20260505151017 63 0 4.0 8.0 0.00 0.00 0.00 65 1011.2
20260505125018 62 23 3.0 8.0 0.00 0.00 0.00 64 1011.8
20260505124036 62 23 3.0 9.0 0.00 0.00 0.00 64 1011.9
20260505123018 62 23 5.0 10.0 0.00 0.00 0.00 64 1011.9
20260505122018 62 23 4.0 10.0 0.00 0.00 0.00 64 1011.9
20260505121018 62 0 3.0 8.0 0.00 0.00 0.00 65 1011.9
20260505120016 62 0 4.0 9.0 0.00 0.00 0.00 64 1011.9
20260505115038 62 23 5.0 9.0 0.00 0.00 0.00 64 1011.9
20260505114017 63 23 6.0 11.0 0.00 0.00 0.00 62 1012.0
20260505113017 63 23 7.0 12.0 0.00 0.00 0.00 63 1012.0
20260505112016 63 23 5.0 11.0 0.00 0.00 0.00 61 1012.0
20260505111016 63 45 6.0 12.0 0.00 0.00 0.00 62 1012.1
20260505102016 64 338 5.0 13.0 0.00 0.00 0.00 61 1012.2
20260505101016 63 45 8.0 15.0 0.00 0.00 0.00 61 1012.3
20260505100016 63 0 6.0 17.0 0.00 0.00 0.00 63 1012.2
20260505095016 61 23 6.0 14.0 0.00 0.00 0.00 68 1012.3
20260505094016 59 23 7.0 18.0 0.00 0.00 0.00 69 1012.3
20260505093016 59 23 6.0 11.0 0.00 0.00 0.00 70 1012.4
20260505092018 59 45 6.0 11.0 0.00 0.00 0.00 70 1012.4
20260505091016 59 23 6.0 12.0 0.00 0.00 0.00 70 1012.5
20260505090016 59 23 5.0 11.0 0.00 0.00 0.00 69 1012.5
20260505085037 59 23 6.0 14.0 0.00 0.00 0.00 71 1012.5
20260505084038 59 23 5.0 10.0 0.00 0.00 0.00 71 1012.6
20260505083016 60 45 6.0 12.0 0.00 0.00 0.00 70 1012.6
20260505082036 60 45 5.0 10.0 0.00 0.00 0.00 70 1012.6
20260505081016 59 23 5.0 10.0 0.00 0.00 0.00 72 1012.5
20260505080017 59 0 3.0 10.0 0.00 0.00 0.00 73 1012.5
20260505075016 59 45 5.0 10.0 0.00 0.00 0.00 74 1012.5
20260505074016 58 45 6.0 13.0 0.00 0.00 0.00 75 1012.5
20260505073017 58 45 5.0 12.0 0.00 0.00 0.00 80 1012.5
20260505072016 57 45 4.0 10.0 0.00 0.00 0.00 85 1012.6
20260505071036 56 45 4.0 8.0 0.00 0.00 0.00 86 1012.5
20260505070016 56 45 3.0 9.0 0.00 0.00 0.00 87 1012.6
20260505065017 56 0 3.0 8.0 0.00 0.00 0.00 87 1012.7
20260505064016 55 0 2.0 7.0 0.00 0.00 0.00 88 1012.8
20260505063016 55 23 3.0 8.0 0.00 0.00 0.00 88 1012.9
20260505062017 55 23 2.0 5.0 0.00 0.00 0.00 88 1012.8
20260505061019 55 45 3.0 5.0 0.00 0.00 0.00 89 1012.7
20260505060017 55 23 1.0 3.0 0.00 0.00 0.00 89 1012.8
20260505055017 55 45 1.0 4.0 0.00 0.00 0.00 89 1012.7
20260505054016 55 0.0 2.0 0.00 0.00 0.00 89 1012.7
20260505053057 55 23 1.0 4.0 0.00 0.00 0.00 89 1012.7
20260505052016 55 23 1.0 3.0 0.00 0.00 0.00 89 1012.6
20260505051017 54 23 1.0 4.0 0.00 0.00 0.00 89 1012.6